YAOGAN-26

Last updated on Mon Oct 14 2024 00:02:24 GMT+0000 (Coordinated Universal Time)

1 40362U 14088A 24287.48160126 .00011778 00000+0 49241-3 0 9993 2 40362 97.0790 301.9134 0009211 93.3223 266.9069 15.23702659543869
UTC large
Height (km)
Speed (km/s)
/
Latitude / Longitude
Inclination (degrees)
Orbital Period (minutes)
Azimuth
Elevation
Range (km)
Doppler Factor

Next 0 passes for location: London (51.5072 / 0.1276)

Sorry there are no passes over London.